COSMOS 2251 DEB

Last updated on Wed Sep 23 2026 00:03:02 GMT+0000 (Coordinated Universal Time)

1 53093U 93036BYP 26265.05468410 .00000883 00000+0 27030-3 0 9993 2 53093 74.0340 135.7327 0020615 151.8508 208.3769 14.43096219218117
UTC large
Height (km)
Speed (km/s)
/
Latitude / Longitude
Inclination (degrees)
Orbital Period (minutes)
Azimuth
Elevation
Range (km)
Doppler Factor

Next 0 passes for location: London (51.5072 / 0.1276)

No passes found over London.
COSMOS 2251 DEB